User: anonymous   Login
Location: Taukkyan
(23.1052°N, 94.0030°E)
Time: 22:18:14
(UTC+00:00)
Language:

CZ-4 R/B - Orbit

View from above orbital plane
View from above orbital plane
View from above satellite
View from above satellite

Ground track
Ground track

The orbit data is extracted from the following two-line orbital elements,

1 29507U 06046C   20272.31203332 -.00000424  00000-0 -27756-4 0  9992
2 29507  97.7337 293.8940 0049882 176.1497 184.0120 15.00572690760848
Epoch (UTC): 28 September 2020 07:29:19
Eccentricity: 0.0049882
inclination: 97.7337°
perigee height: 530 km
apogee height: 600 km
right ascension of ascending node: 293.8940°
argument of perigee: 176.1497°
revolutions per day: 15.00572690
mean anomaly at epoch: 184.0120°
orbit number at epoch: 76084

The dashed part of the orbit path shows where the satellite is in the earth's shadow,  

DLR